Date,TemperatureHighF,TemperatureAvgF,TemperatureLowF,DewpointHighF,DewpointAvgF,DewpointLowF,HumidityHigh,HumidityAvg,HumidityLow,PressureMaxIn,PressureMinIn,WindSpeedMaxMPH,WindSpeedAvgMPH,GustSpeedMaxMPH,PrecipitationSumIn
2013-2-1,50.6,12.4,46.7,47.0,-63.1,-99.9,95,22,84,30.30,30.22,3,-746,0,0.00
2013-2-2,-200.0,0.0,200.0,-99.9,-99.9,-99.9,0,0,100,30.27,30.15,0,-999,0,0.00
2013-2-3,-200.0,0.0,200.0,-99.9,-99.9,-99.9,0,0,100,30.18,30.09,0,-999,0,0.00
2013-2-4,50.6,8.8,48.3,44.0,-74.5,-99.9,83,14,78,30.09,29.77,2,-822,0,0.00
2013-2-5,49.8,13.7,45.2,45.0,-59.0,-99.9,90,24,79,29.81,29.72,13,-714,0,0.02
2013-2-6,48.8,10.5,45.3,44.0,-68.3,-99.9,93,19,80,29.93,29.68,6,-778,0,0.07
2013-2-7,50.8,15.2,42.4,41.0,-55.1,-99.9,88,24,60,30.08,29.68,7,-676,0,0.00
2013-2-8,44.9,13.6,39.6,41.0,-56.6,-99.9,94,26,79,30.20,30.08,3,-687,0,0.00
2013-2-9,-200.0,0.0,200.0,-99.9,-99.9,-99.9,0,0,100,30.22,30.15,0,-999,0,0.00
2013-2-10,-200.0,0.0,200.0,-99.9,-99.9,-99.9,0,0,100,30.27,30.21,0,-999,0,0.00
2013-2-11,46.7,9.2,45.8,43.0,-71.6,-99.9,87,17,80,30.24,30.21,4,-799,0,0.00
2013-2-12,51.8,3.2,49.8,47.0,-90.8,-99.9,86,5,83,30.29,30.15,8,-936,0,0.00
2013-2-13,-200.0,0.0,200.0,-99.9,-99.9,-99.9,0,0,100,30.38,30.18,0,-999,0,0.00
2013-2-14,-200.0,0.0,200.0,-99.9,-99.9,-99.9,0,0,100,30.44,30.38,0,-999,0,0.00
2013-2-15,54.0,16.1,45.8,47.0,-54.4,-99.9,92,25,75,30.43,30.07,2,-687,0,0.00
2013-2-16,55.9,13.2,46.3,45.0,-62.6,-99.9,86,20,58,30.08,30.00,8,-738,0,0.00
2013-2-17,-200.0,0.0,200.0,-99.9,-99.9,-99.9,0,0,100,30.13,30.00,0,-999,0,0.00
2013-2-18,46.5,8.6,44.8,39.0,-73.8,-99.9,79,14,73,29.99,29.65,5,-809,0,0.00
2013-2-19,50.3,13.7,44.8,41.0,-60.6,-99.9,79,20,57,29.90,29.63,5,-715,0,0.00
2013-2-20,44.4,10.4,41.9,40.0,-66.4,-99.9,93,21,83,29.93,29.88,7,-759,0,0.06
2013-2-21,44.0,11.3,42.2,41.0,-63.2,-99.9,90,23,86,29.95,29.90,9,-735,0,0.00
2013-2-22,48.0,5.4,43.6,45.0,-83.5,-99.9,94,10,75,29.93,29.57,13,-882,0,0.00
2013-2-23,51.0,16.5,40.5,41.0,-50.5,-99.9,89,27,66,30.26,29.78,6,-645,0,0.00
2013-2-24,47.8,13.5,45.3,41.0,-59.2,-99.9,82,22,72,30.26,29.84,11,-706,0,0.00
2013-2-25,52.2,12.2,45.6,39.0,-66.8,-99.9,69,14,49,30.19,29.76,10,-753,0,0.00
2013-2-26,47.2,15.2,42.7,39.0,-54.2,-99.9,83,24,66,30.24,30.08,6,-665,0,0.00
2013-2-27,47.1,13.3,43.4,43.0,-58.6,-99.9,92,25,79,30.19,30.09,4,-707,0,0.03
2013-2-28,51.7,8.6,50.1,50.0,-74.7,-99.9,96,16,92,30.20,30.08,7,-830,0,0.00